SCP
-0 -0 0 -0 -0 -0 -0 0 -0 -0 0 0 -0 0 0 0 0 0 0 0 0 0 -0 -0 -0 0 0 0 0 0 0 0 0 0 0 0 0 0 0 0 0 0 0 0 0 0 0 0 0 0 0 0 0 0
-0 -0 -0 -0 -0 -0 -0 -0 -0 0 -0 0 0 0 0 0 0 0 0 0 0 0 0 0 0 0 0 0 0 0 0 0 0 0 0 0 0 0 0 0 0 0 0 0 0 0 0 0 0 0 0 0 0 0
-0 0 -0 -0 -0 -0 -0 -0 -0 -0 0 -0 -0 0 0 0 0 0 0 0 0 -0 0 0 0 0 0 0 0 0 0 0 0 0 0 0 0 0 0 0 0 0 0 0 0 0 0 0 0 0 0 0 0 0
0 0 0 -0 -0 -0 -0 -0 -0 -0 -0 0 0 -0 -0 -0 0 0 0 0 0 0 -0 -0 0 0 0 0 0 0 0 0 0 0 0 0 0 0 0 0 0 0 0 0 0 0 0 0 0 0 0 0 0 0
0 0 0 -0 -0 -0 -0 -0 -0 -0 -0 0 0 0 0 0 0 0 0 0 0 0 0 0 0 0 0 0 0 0 0 0 0 0 0 0 0 0 0 0 0 0 0 0 0 0 0 0 0 0 0 0 0 0
0 0 0 -0 -0 -0 -0 -0 -0 -0 -0 0 -0 -0 -0 0 0 0 0 0 0 0 0 0 0 0 0 0 0 0 0 0 0 0 0 0 0 0 0 0 0 0 0 0 0 0 0 0 0 0 0 0 0 0
0 0 0 -0 -0 -0 -0 -0 -0 -0 0 0 -0 0 0 0 0 0 0 0 0 0 0 0 0 0 0 0 0 0 0 0 0 0 0 0 0 0 0 0 0 0 0 0 0 0 0 0 0 0 0 0 0 0
-0 0 0 -0 -0 -0 -0 -0 -0 -0 -0 -0 -0 -0 -0 -0 0 0 0 0 0 0 0 0 0 0 0 0 0 0 0 0 0 0 0 0 0 0 0 0 0 0 0 0 0 0 0 0 0 0 0 0 0 0
-0 -0 -0 0 -0 -0 -0 -0 -0 0 -0 0 0 0 -0 0 0 0 0 0 0 0 0 0 0 -0 0 0 0 0 0 0 0 0 0 0 0 0 0 0 0 0 0 0 0 0 0 0 0 0 0 0 0 0
-0 -0 -0 -0 -0 -0 -0 -0 -0 0 0 0 0 0 0 -0 0 -0 -0 0 0 0 0 0 0 0 0 0 0 0 0 0 0 0 0 0 0 0 0 0 0 0 0 0 0 0 0 0 0 0 0 0 0 0
-0 -0 -0 -0 -0 0 0 0 -0 0 0 0 0 0 -0 0 0 0 0 0 0 0 0 0 0 0 0 0 0 0 0 0 0 0 0 0 0 0 0 0 0 0 0 0 0 0 0 0 0 0 0 0 0 0
-0 -0 -0 -0 -0 0 0 0 -0 -0 0 0 0 0 0 0 0 0 0 0 0 0 0 0 0 0 0 0 0 0 0 0 0 0 0 0 0 0 0 0 0 0 0 0 0 0 0 0 0 0 0 0 0 0
-0 -0 -0 -0 -0 -0 0 0 0 0 0 0 0 0 0 0 0 0 0 0 0 0 0 0 0 0 0 0 0 0 0 0 0 0 0 0 0 0 0 0 0 0 0 0 0 0 0 0 0 0 0 0 0 0
-0 -0 0 0 0 0 0 0 0 0 0 0 0 0 0 0 0 0 0 0 0 0 0 0 0 0 0 0 0 0 0 0 0 0 0 0 0 0 0 0 0 0 0 0 0 0 0 0 0 0 0 0 0 0
-0 0 0 0 0 0 0 0 0 0 0 0 0 0 0 0 0 0 0 0 0 0 0 0 0 0 0 0 0 0 0 0 0 0 0 0 0 0 0 0 0 0 0 0 0 0 0 0 0 0 0 0 0 0
0 0 0 0 0 0 0 0 0 0 0 0 0 0 0 0 0 0 0 0 0 0 0 0 0 0 0 0 0 0 0 0 0 0 0 0 0 0 0 0 0 0 0 0 0 0 0 0 0 0 0 0 0 0
0 0 0 0 0 0 0 0 0 0 0 0 0 0 0 0 0 0 0 0 0 0 0 0 0 0 0 0 0 0 0 0 0 0 0 0 0 0 0 0 0 0 0 0 0 0 0 0 0 0 0 0 0 0
0 0 0 0 0 0 0 0 0 0 0 0 0 0 0 0 0 0 0 0 0 0 0 0 0 0 0 0 0 0 0 0 0 0 0 0 0 0 0 0 0 0 0 0 0 0 0 0 0 0 0 0 0 0
0 0 0 0 0 0 0 0 0 0 0 0 0 0 0 0 0 0 0 0 0 0 0 0 0 0 0 0 0 0 0 0 0 0 0 0 0 0 0 0 0 0 0 0 0 0 0 0 0 0 0 0 0 0
0 0 0 0 0 0 0 0 0 0 0 0 0 0 0 0 0 0 0 0 0 0 0 0 0 0 0 0 0 0 0 0 0 0 0 0 0 0 0 0 0 0 0 0 0 0 0 0 0 0 0 0 0 0
0 0 0 0 0 0 0 0 0 0 0 0 0 0 0 0 0 0 0 0 0 0 0 0 0 0 0 0 0 0 0 0 0 0 0 0 0 0 0 0 0 0 0 0 0 0 0 0 0 0 0 0 0 0
0 0 0 0 0 0 0 0 0 0 0 0 0 0 0 0 0 0 0 0 0 0 0 0 0 0 0 0 0 0 0 0 0 0 0 0 0 0 0 0 0 0 0 0 0 0 0 0 0 0 0 0 0 0
0 0 0 0 0 0 0 0 0 0 0 0 0 0 0 0 0 0 0 0 0 0 0 0 0 0 0 0 0 0 0 0 0 0 0 0 0 0 0 0 0 0 0 0 0 0 0 0 0 0 0 0 0 0
0 0 0 0 0 0 0 0 0 0 0 0 0 0 0 0 0 0 0 0 0 0 0 0 0 0 0 0 0 0 0 0 0 0 0 0 0 0 0 0 0 0 0 0 0 0 0 0 0 0 0 0 0 0
0 0 0 0 0 0 0 0 0 0 0 0 0 0 0 0 0 0 0 0 0 0 0 0 0 0 0 0 0 0 0 0 0 0 0 0 0 0 0 0 0 0 0 0 0 0 0 0 0 0 0 0 0 0
0 0 0 0 0 0 0 0 0 0 0 0 0 0 0 0 0 0 0 0 0 0 0 0 0 0 0 0 0 0 0 0 0 0 0 0 0 0 0 0 0 0 0 0 0 0 0 0 0 0 0 0 0 0
0 0 0 0 0 0 0 0 0 0 0 0 0 0 0 0 0 0 0 0 0 0 0 0 0 0 0 0 0 0 0 0 0 0 0 0 0 0 0 0 0 0 0 0 0 0 0 0 0 0 0 0 0 0
0 0 0 0 0 0 0 0 0 0 0 0 0 0 0 0 0 0 0 0 0 0 0 0 0 0 0 0 0 0 0 0 0 0 0 0 0 0 0 0 0 0 0 0 0 0 0 0 0 0 0 0 -0 0
0 0 0 0 0 0 0 0 0 0 0 0 0 0 0 0 0 0 0 0 0 0 0 0 0 0 0 0 0 0 0 0 0 0 0 0 0 0 0 0 0 0 0 0 0 0 0 0 0 0 0 -0 -0 0
0 0 0 0 0 0 0 0 0 0 0 0 0 0 0 0 0 0 0 0 0 0 0 0 0 0 0 0 0 0 0 -0 0 0 0 0 0 0 0 0 0 0 0 0 0 0 0 0 0 0 0 -0 -0 -0
0 0 0 0 0 0 0 0 0 0 0 0 0 0 0 0 0 0 0 0 0 0 0 0 0 0 0 0 0 0 0 0 -0 -0 -0 0 0 0 -0 0 0 0 0 0 -0 -0 -0 -0 -0 -0 -0 -0 -0 -0
0 0 0 0 0 0 0 0 0 0 0 0 0 0 0 0 0 0 0 0 0 0 0 0 0 0 0 0 0 0 0 0 0 0 0 0 0 0 0 0 0 0 0 -0 -0 -0 -0 -0 -0 -0 -0 -0 -0 -0
0 0 0 0 0 0 0 0 0 0 0 0 0 0 0 0 0 0 0 0 0 -0 0 0 0 0 0 0 0 0 0 0 0 0 0 0 0 0 0 0 0 0 -0 -0 -0 -0 -0 -0 -0 -0 -0 -0 -0 -0
Wind_Speed_500mb
66 59 51 33 27 34 24 18 16 14 12 17 22 23 18 14 10 13 30 29 22 13 16 12 14 13 9 15 9 10 10 4 5 10 9 8 8 14 6 8 11 23 18 17 16 20 25 24 10 31 10 19 38 43
66 57 47 36 25 17 15 13 8 11 12 12 15 17 16 16 17 12 8 15 20 14 3 5 14 23 32 29 17 33 10 15 23 6 4 7 4 5 13 10 5 11 11 13 16 12 5 14 3 11 24 41 42 52
66 58 52 31 27 23 11 10 8 6 12 19 21 21 20 18 23 21 21 17 17 11 6 6 10 16 23 41 38 15 23 21 18 16 9 6 8 7 11 14 4 6 7 7 6 5 5 14 14 22 20 36 46 42
64 57 53 40 20 22 23 21 18 4 17 21 28 28 23 20 27 23 25 25 17 5 1 6 10 20 26 33 45 61 40 26 24 22 6 6 6 14 6 6 13 7 14 11 6 1 1 14 18 26 33 37 37 34
60 56 52 41 18 20 21 22 9 22 15 9 31 22 21 31 34 27 24 25 23 18 4 5 10 11 18 27 35 55 58 42 30 8 4 5 7 7 4 4 6 15 13 11 9 18 5 6 46 44 39 37 32 29
55 55 49 34 17 18 20 21 20 7 25 17 3 24 24 27 24 21 14 32 34 41 9 1 7 6 8 7 18 20 39 32 20 14 5 8 7 7 8 8 2 12 14 8 9 16 16 22 47 46 45 38 32 28
51 48 47 33 22 18 19 19 21 14 23 23 21 13 16 23 38 26 7 6 25 30 6 1 6 3 8 4 4 5 6 6 9 12 6 7 6 5 3 5 3 11 9 13 19 29 21 39 26 47 39 34 30 28
46 39 37 35 27 20 19 19 17 16 8 9 11 16 19 15 7 11 7 10 18 11 6 3 6 4 14 9 5 8 4 5 12 7 4 3 6 3 6 5 18 21 23 27 30 12 12 37 42 44 36 33 32 27
42 33 29 27 30 26 19 16 14 9 1 2 6 5 9 5 5 14 22 14 6 5 9 5 7 6 10 6 5 3 2 4 4 4 3 2 1 7 4 10 38 37 28 29 23 17 29 37 44 40 35 33 31 29
38 34 26 23 21 27 27 18 8 9 7 6 9 6 4 1 22 14 4 3 4 3 6 5 4 2 9 9 5 4 6 2 2 4 12 2 5 1 4 5 26 38 18 32 32 22 31 37 36 34 31 27 23 21
37 31 29 25 19 17 21 24 15 3 6 9 6 4 2 12 12 5 2 6 9 5 7 4 3 1 8 3 3 7 2 2 5 6 4 4 6 0 3 8 23 30 15 27 13 6 19 15 27 29 30 29 27 23
38 33 24 25 27 20 13 14 17 11 5 5 6 7 6 6 4 6 2 6 4 6 2 7 3 1 1 1 3 4 4 4 2 9 5 6 5 4 10 21 28 24 21 18 10 6 13 16 23 24 25 25 25 22
37 36 28 22 24 27 22 14 12 14 13 11 6 6 2 3 6 10 8 7 3 12 12 9 1 3 2 2 8 5 7 4 6 7 6 7 5 10 23 29 29 25 21 15 10 9 12 17 21 23 23 23 21 17
40 35 29 21 27 25 26 22 16 14 9 7 8 8 6 8 9 9 8 8 6 9 21 14 9 5 2 6 1 8 1 2 6 4 9 5 7 17 28 27 24 19 16 15 14 15 17 18 20 21 20 19 17 15
37 32 24 24 32 28 24 21 19 13 7 8 6 8 8 4 3 5 8 8 13 25 16 12 10 2 6 8 4 6 9 4 10 9 6 11 13 24 32 32 30 26 24 22 20 19 20 21 21 21 21 20 19 17
30 23 21 39 37 34 29 23 17 10 8 8 9 8 5 4 4 10 19 10 26 22 13 5 5 8 4 7 6 12 12 12 8 7 19 24 23 28 30 28 26 23 23 24 25 26 27 27 26 25 23 21 21 20
30 23 37 41 39 36 30 18 9 13 12 9 5 10 17 3 6 11 20 25 35 21 4 6 7 13 5 6 5 9 11 7 13 24 28 22 19 21 25 26 27 26 26 28 29 30 28 27 24 23 21 21 23 22
41 37 38 41 41 37 25 10 10 10 8 8 6 9 15 5 13 18 19 35 25 15 18 9 17 5 11 11 8 8 28 12 23 26 25 25 25 25 27 25 26 27 28 29 29 30 30 28 26 22 25 26 24 23
44 40 36 40 42 27 9 7 8 6 5 4 6 13 10 7 12 19 24 45 18 11 13 10 6 7 8 10 11 7 23 28 21 26 23 21 21 22 23 28 31 33 33 33 33 29 26 28 26 29 28 25 22 23
37 36 37 35 35 10 9 6 7 5 4 9 9 15 7 5 14 20 31 31 21 10 3 5 10 9 13 8 11 10 17 25 19 21 24 22 22 22 22 23 23 23 29 32 33 32 31 29 27 25 24 23 24 23
41 40 38 33 28 16 11 7 4 0 7 4 12 11 5 14 11 14 17 25 14 12 6 24 24 13 17 13 14 20 18 22 22 20 11 17 26 24 25 27 30 33 34 32 31 29 30 26 22 26 26 25 26 29
46 35 32 29 11 10 7 6 2 8 4 9 13 4 6 4 7 11 16 15 15 18 22 16 21 23 27 24 19 19 21 23 23 23 23 22 20 24 30 33 34 34 33 30 29 28 25 23 28 29 26 26 31 32
43 30 16 13 10 8 3 8 4 3 3 5 6 1 2 3 6 15 8 16 20 28 36 40 33 25 23 26 26 26 26 24 23 24 25 26 26 25 24 25 27 30 29 27 27 28 28 30 29 27 27 30 32 35
37 12 11 10 14 6 8 5 4 7 6 4 5 5 3 4 9 3 7 12 20 20 29 35 31 27 25 23 23 22 20 19 21 24 25 26 26 23 24 24 25 23 26 29 32 32 33 32 30 29 29 31 34 36
11 13 11 8 9 6 5 2 1 3 5 7 7 5 4 10 3 6 7 7 15 21 21 27 29 28 21 15 14 14 13 14 16 18 21 23 25 27 28 26 25 25 28 31 33 32 32 32 32 32 34 36 38 38
11 16 16 11 6 9 10 9 10 12 5 6 4 6 8 4 4 12 6 5 5 11 21 21 20 18 16 14 11 11 11 12 16 19 21 24 24 25 25 26 25 25 25 24 26 29 31 33 33 34 36 39 39 40
11 11 11 11 9 12 5 4 5 4 9 11 7 8 7 7 10 7 3 2 3 14 20 19 17 14 10 5 7 13 17 19 22 23 23 22 22 25 28 29 26 22 26 21 25 27 28 31 33 36 39 38 36 38
6 13 11 18 9 9 6 6 9 10 6 9 16 8 9 9 6 3 2 5 16 21 22 19 12 5 6 10 11 13 19 25 29 30 30 27 23 21 21 23 25 24 22 22 22 24 25 28 33 36 35 33 33 37
4 15 14 6 5 7 8 8 5 6 10 15 5 5 4 4 3 3 3 9 19 20 14 6 3 7 8 11 17 20 20 20 22 20 18 16 14 17 18 17 19 20 20 20 23 24 25 27 27 28 30 31 32 36
5 15 4 6 7 9 6 8 6 7 10 13 7 7 8 7 8 8 10 13 20 20 13 7 5 3 5 6 10 13 15 17 17 12 13 15 12 12 14 15 14 14 16 18 18 18 19 20 24 27 28 32 34 38
9 12 3 4 2 2 5 7 8 7 7 7 12 11 11 11 12 16 19 22 22 23 15 8 7 5 10 11 14 17 16 15 14 15 15 15 11 8 7 7 7 8 9 11 13 16 19 22 25 29 33 36 38 43
8 8 4 5 2 4 5 5 3 3 3 3 4 6 6 6 7 3 2 5 15 24 20 18 14 16 16 17 16 14 12 11 10 9 7 6 4 2 1 1 3 6 9 11 15 18 22 26 30 34 38 41 44 47
5 5 4 5 4 4 5 4 2 2 2 2 3 4 4 5 7 3 3 7 20 30 28 21 17 17 19 13 6 3 3 4 5 7 7 7 6 5 3 3 5 8 11 14 18 23 27 32 35 39 44 48 52 54
Wind_Direction_500mb
9 11 18 46 63 67 73 92 92 91 114 149 166 182 191 182 107 58 64 64 76 102 150 173 209 188 193 194 149 161 115 174 127 188 166 194 169 206 192 220 196 199 198 211 208 208 248 158 127 180 179 120 159 164
7 10 9 19 40 96 87 93 131 155 163 181 197 207 215 242 235 272 6 29 32 58 92 273 224 220 224 214 217 186 202 154 178 174 207 108 170 144 156 239 162 233 214 200 203 215 17 181 57 155 161 157 163 162
5 8 7 9 21 33 98 133 144 201 214 210 211 213 216 223 237 235 252 287 324 3 326 249 252 241 236 236 229 211 224 220 201 212 155 184 202 139 168 213 202 284 226 206 126 182 174 214 180 164 169 163 160 164
4 7 8 6 16 29 39 39 52 43 246 238 216 219 220 217 236 236 246 257 275 281 139 238 266 248 253 247 241 232 225 216 209 192 157 157 186 189 211 204 199 187 163 164 274 153 83 217 190 166 156 154 158 160
6 5 9 8 20 27 30 32 46 35 32 253 227 213 214 223 232 236 243 258 256 225 235 241 240 259 271 268 255 230 227 223 182 148 161 220 168 123 320 11 243 185 169 179 218 166 122 162 188 181 170 171 173 171
7 7 12 23 32 26 26 22 20 350 33 47 158 221 225 232 231 223 229 235 228 218 235 238 245 255 279 255 217 204 204 195 176 144 178 205 171 165 182 198 206 185 185 180 138 156 196 176 178 180 175 176 175 175
6 13 22 37 40 24 18 18 19 30 73 72 91 128 191 200 209 194 194 204 207 211 226 350 320 297 334 330 353 53 158 127 124 137 181 153 154 153 122 217 134 166 175 157 163 151 132 163 172 175 182 175 173 171
3 14 20 31 39 29 15 10 16 36 111 79 38 68 79 72 142 223 203 145 165 187 177 138 280 351 6 356 338 12 25 56 42 99 85 69 111 67 230 136 165 167 156 161 164 178 176 173 169 171 176 175 172 170
357 8 14 18 30 36 24 10 2 360 72 127 67 25 345 7 86 135 141 128 138 190 152 102 152 227 353 359 320 341 13 78 30 61 48 5 69 218 221 179 187 180 170 179 162 143 150 168 166 172 177 176 182 177
353 354 1 3 8 22 25 24 2 338 321 280 295 292 290 337 145 155 188 226 225 48 50 87 125 295 354 4 8 327 34 65 104 357 324 17 258 138 325 241 196 189 185 170 151 149 163 170 177 180 183 185 182 179
347 349 347 350 348 354 10 16 21 328 293 277 282 281 175 171 173 239 267 35 357 32 32 83 71 14 12 51 283 23 197 317 97 262 130 309 284 40 325 163 170 183 176 170 169 144 187 198 194 189 185 181 182 181
340 340 340 337 341 335 339 357 4 351 305 280 264 218 199 205 187 93 287 332 59 225 180 143 180 219 28 359 130 351 122 23 198 319 69 306 255 253 167 156 160 169 169 176 196 167 177 180 177 178 179 180 184 190
334 336 333 322 331 330 320 319 330 333 307 255 241 216 206 275 28 144 228 286 273 183 181 167 173 155 193 76 63 60 78 202 318 42 230 233 215 204 172 165 168 177 185 192 195 185 170 171 176 179 184 188 196 205
327 328 328 322 327 321 320 306 305 324 293 241 206 271 154 289 246 186 183 189 145 157 155 150 125 153 59 62 321 84 263 44 48 360 238 242 209 180 177 177 182 188 196 199 198 191 184 183 185 187 194 206 221 229
327 322 323 322 326 324 315 309 283 288 259 251 179 235 212 256 216 195 189 183 167 156 149 118 81 53 357 77 41 102 30 292 206 226 225 195 176 179 181 185 189 195 200 204 205 200 195 192 195 205 215 226 236 243
342 329 332 329 326 321 318 309 280 232 240 230 201 103 140 50 280 207 198 194 165 158 152 119 116 60 335 127 86 214 127 222 237 213 185 177 179 182 187 191 195 198 200 199 200 201 201 202 206 216 226 236 244 249
342 336 335 333 328 320 312 297 241 219 222 207 242 212 187 181 175 166 175 169 169 164 188 117 109 204 103 47 269 198 205 220 203 173 172 182 193 194 194 198 203 205 206 205 203 205 208 216 224 232 239 244 245 250
321 327 330 335 339 330 306 238 239 239 218 197 170 187 193 177 156 161 175 171 165 200 164 192 131 124 190 183 253 233 224 186 168 176 183 191 195 201 204 208 209 210 212 213 214 218 225 232 240 244 241 244 247 250
298 312 322 331 334 330 277 250 240 251 197 173 176 167 177 168 180 175 174 172 173 170 158 143 102 200 225 215 232 228 189 181 185 190 198 202 202 202 203 203 204 208 211 215 219 226 232 237 238 236 240 247 251 261
292 300 313 319 328 294 269 271 257 268 170 167 156 160 147 143 154 169 170 173 165 180 155 197 217 217 206 222 220 193 201 195 197 193 209 213 217 220 224 228 229 224 220 220 222 228 238 244 246 245 248 249 254 267
286 294 299 310 318 230 261 254 257 90 152 176 152 150 125 142 147 167 182 184 204 219 239 230 230 232 228 215 201 202 199 200 210 221 236 232 231 230 232 231 227 228 230 233 238 242 245 249 243 243 247 252 258 266
268 278 289 303 247 244 257 236 146 146 153 136 156 164 139 156 177 187 171 199 235 234 218 225 240 237 233 225 218 214 215 220 224 230 238 246 246 239 241 240 238 240 243 248 247 247 246 235 234 241 248 256 267 276
268 263 261 228 235 236 237 190 198 161 117 207 145 58 224 192 190 169 240 232 250 237 230 234 236 236 228 225 229 232 234 238 243 244 243 247 250 249 242 238 237 239 240 239 239 238 234 231 235 242 253 265 276 279
251 223 218 224 208 207 174 167 160 131 125 160 176 227 235 169 160 215 258 250 239 236 226 221 216 212 215 223 231 234 237 241 243 244 245 248 251 248 243 237 235 235 230 226 230 231 230 231 236 246 261 274 283 283
206 215 205 221 197 135 151 67 334 120 245 201 200 209 189 155 184 232 236 262 237 224 210 202 203 210 216 220 227 228 228 235 242 241 245 249 248 244 243 239 237 233 231 232 235 236 232 233 242 254 266 278 286 284
216 197 186 197 168 177 180 162 197 199 167 179 206 139 163 166 214 243 230 312 283 219 199 191 188 194 211 209 203 215 232 249 257 258 258 259 256 251 249 245 242 239 241 239 234 234 235 239 249 262 271 281 282 281
226 207 183 178 153 145 113 92 132 134 180 200 176 166 176 215 239 251 325 165 120 145 154 163 167 155 151 183 255 267 271 271 269 266 265 262 257 251 245 241 238 232 238 235 234 239 245 251 260 268 276 278 280 282
213 171 172 170 169 191 150 173 183 213 213 160 136 185 199 214 245 356 39 147 148 143 146 153 159 195 281 300 298 292 283 278 271 265 260 258 255 247 242 234 230 230 233 235 238 242 249 258 265 272 275 277 277 281
134 149 140 114 139 198 221 203 210 184 165 175 189 235 249 247 238 152 115 170 172 170 172 184 286 310 315 309 303 300 299 292 276 267 260 247 242 228 219 214 213 218 228 243 253 259 265 266 267 269 275 282 284 286
144 162 139 163 186 209 180 193 192 198 204 211 243 280 279 267 258 235 221 215 208 210 218 249 293 294 330 18 41 53 66 82 93 109 137 149 148 162 179 191 207 231 248 254 258 260 263 267 271 278 281 285 289 291
157 177 144 175 215 188 199 208 224 233 237 238 241 252 264 290 278 268 255 241 226 214 216 223 198 172 131 113 101 90 85 91 99 106 123 143 156 169 191 219 236 244 250 255 263 271 278 283 287 291 294 296 299 301
162 181 164 203 195 185 174 185 187 196 231 230 244 252 266 271 267 238 250 225 207 203 196 184 172 162 148 128 110 96 89 93 101 112 125 127 128 122 114 273 269 273 282 289 292 295 297 299 300 301 303 304 305 305
128 154 167 145 141 178 195 182 90 322 258 280 272 292 281 274 255 233 230 175 164 162 169 173 172 172 178 178 163 142 111 100 107 111 113 108 100 92 66 16 345 336 326 318 312 309 307 305 307 308 308 309 308 308
Wind_Speed_850mb
66 59 51 33 27 34 24 18 16 14 12 17 22 23 18 14 10 13 30 29 22 13 16 12 14 13 9 15 9 10 10 4 5 10 9 8 8 14 6 8 11 23 18 17 16 20 25 24 10 31 10 19 38 43
66 57 47 36 25 17 15 13 8 11 12 12 15 17 16 16 17 12 8 15 20 14 3 5 14 23 32 29 17 33 10 15 23 6 4 7 4 5 13 10 5 11 11 13 16 12 5 14 3 11 24 41 42 52
66 58 52 31 27 23 11 10 8 6 12 19 21 21 20 18 23 21 21 17 17 11 6 6 10 16 23 41 38 15 23 21 18 16 9 6 8 7 11 14 4 6 7 7 6 5 5 14 14 22 20 36 46 42
64 57 53 40 20 22 23 21 18 4 17 21 28 28 23 20 27 23 25 25 17 5 1 6 10 20 26 33 45 61 40 26 24 22 6 6 6 14 6 6 13 7 14 11 6 1 1 14 18 26 33 37 37 34
60 56 52 41 18 20 21 22 9 22 15 9 31 22 21 31 34 27 24 25 23 18 4 5 10 11 18 27 35 55 58 42 30 8 4 5 7 7 4 4 6 15 13 11 9 18 5 6 46 44 39 37 32 29
55 55 49 34 17 18 20 21 20 7 25 17 3 24 24 27 24 21 14 32 34 41 9 1 7 6 8 7 18 20 39 32 20 14 5 8 7 7 8 8 2 12 14 8 9 16 16 22 47 46 45 38 32 28
51 48 47 33 22 18 19 19 21 14 23 23 21 13 16 23 38 26 7 6 25 30 6 1 6 3 8 4 4 5 6 6 9 12 6 7 6 5 3 5 3 11 9 13 19 29 21 39 26 47 39 34 30 28
46 39 37 35 27 20 19 19 17 16 8 9 11 16 19 15 7 11 7 10 18 11 6 3 6 4 14 9 5 8 4 5 12 7 4 3 6 3 6 5 18 21 23 27 30 12 12 37 42 44 36 33 32 27
42 33 29 27 30 26 19 16 14 9 1 2 6 5 9 5 5 14 22 14 6 5 9 5 7 6 10 6 5 3 2 4 4 4 3 2 1 7 4 10 38 37 28 29 23 17 29 37 44 40 35 33 31 29
38 34 26 23 21 27 27 18 8 9 7 6 9 6 4 1 22 14 4 3 4 3 6 5 4 2 9 9 5 4 6 2 2 4 12 2 5 1 4 5 26 38 18 32 32 22 31 37 36 34 31 27 23 21
37 31 29 25 19 17 21 24 15 3 6 9 6 4 2 12 12 5 2 6 9 5 7 4 3 1 8 3 3 7 2 2 5 6 4 4 6 0 3 8 23 30 15 27 13 6 19 15 27 29 30 29 27 23
38 33 24 25 27 20 13 14 17 11 5 5 6 7 6 6 4 6 2 6 4 6 2 7 3 1 1 1 3 4 4 4 2 9 5 6 5 4 10 21 28 24 21 18 10 6 13 16 23 24 25 25 25 22
37 36 28 22 24 27 22 14 12 14 13 11 6 6 2 3 6 10 8 7 3 12 12 9 1 3 2 2 8 5 7 4 6 7 6 7 5 10 23 29 29 25 21 15 10 9 12 17 21 23 23 23 21 17
40 35 29 21 27 25 26 22 16 14 9 7 8 8 6 8 9 9 8 8 6 9 21 14 9 5 2 6 1 8 1 2 6 4 9 5 7 17 28 27 24 19 16 15 14 15 17 18 20 21 20 19 17 15
37 32 24 24 32 28 24 21 19 13 7 8 6 8 8 4 3 5 8 8 13 25 16 12 10 2 6 8 4 6 9 4 10 9 6 11 13 24 32 32 30 26 24 22 20 19 20 21 21 21 21 20 19 17
30 23 21 39 37 34 29 23 17 10 8 8 9 8 5 4 4 10 19 10 26 22 13 5 5 8 4 7 6 12 12 12 8 7 19 24 23 28 30 28 26 23 23 24 25 26 27 27 26 25 23 21 21 20
30 23 37 41 39 36 30 18 9 13 12 9 5 10 17 3 6 11 20 25 35 21 4 6 7 13 5 6 5 9 11 7 13 24 28 22 19 21 25 26 27 26 26 28 29 30 28 27 24 23 21 21 23 22
41 37 38 41 41 37 25 10 10 10 8 8 6 9 15 5 13 18 19 35 25 15 18 9 17 5 11 11 8 8 28 12 23 26 25 25 25 25 27 25 26 27 28 29 29 30 30 28 26 22 25 26 24 23
44 40 36 40 42 27 9 7 8 6 5 4 6 13 10 7 12 19 24 45 18 11 13 10 6 7 8 10 11 7 23 28 21 26 23 21 21 22 23 28 31 33 33 33 33 29 26 28 26 29 28 25 22 23
37 36 37 35 35 10 9 6 7 5 4 9 9 15 7 5 14 20 31 31 21 10 3 5 10 9 13 8 11 10 17 25 19 21 24 22 22 22 22 23 23 23 29 32 33 32 31 29 27 25 24 23 24 23
41 40 38 33 28 16 11 7 4 0 7 4 12 11 5 14 11 14 17 25 14 12 6 24 24 13 17 13 14 20 18 22 22 20 11 17 26 24 25 27 30 33 34 32 31 29 30 26 22 26 26 25 26 29
46 35 32 29 11 10 7 6 2 8 4 9 13 4 6 4 7 11 16 15 15 18 22 16 21 23 27 24 19 19 21 23 23 23 23 22 20 24 30 33 34 34 33 30 29 28 25 23 28 29 26 26 31 32
43 30 16 13 10 8 3 8 4 3 3 5 6 1 2 3 6 15 8 16 20 28 36 40 33 25 23 26 26 26 26 24 23 24 25 26 26 25 24 25 27 30 29 27 27 28 28 30 29 27 27 30 32 35
37 12 11 10 14 6 8 5 4 7 6 4 5 5 3 4 9 3 7 12 20 20 29 35 31 27 25 23 23 22 20 19 21 24 25 26 26 23 24 24 25 23 26 29 32 32 33 32 30 29 29 31 34 36
11 13 11 8 9 6 5 2 1 3 5 7 7 5 4 10 3 6 7 7 15 21 21 27 29 28 21 15 14 14 13 14 16 18 21 23 25 27 28 26 25 25 28 31 33 32 32 32 32 32 34 36 38 38
11 16 16 11 6 9 10 9 10 12 5 6 4 6 8 4 4 12 6 5 5 11 21 21 20 18 16 14 11 11 11 12 16 19 21 24 24 25 25 26 25 25 25 24 26 29 31 33 33 34 36 39 39 40
11 11 11 11 9 12 5 4 5 4 9 11 7 8 7 7 10 7 3 2 3 14 20 19 17 14 10 5 7 13 17 19 22 23 23 22 22 25 28 29 26 22 26 21 25 27 28 31 33 36 39 38 36 38
6 13 11 18 9 9 6 6 9 10 6 9 16 8 9 9 6 3 2 5 16 21 22 19 12 5 6 10 11 13 19 25 29 30 30 27 23 21 21 23 25 24 22 22 22 24 25 28 33 36 35 33 33 37
4 15 14 6 5 7 8 8 5 6 10 15 5 5 4 4 3 3 3 9 19 20 14 6 3 7 8 11 17 20 20 20 22 20 18 16 14 17 18 17 19 20 20 20 23 24 25 27 27 28 30 31 32 36
5 15 4 6 7 9 6 8 6 7 10 13 7 7 8 7 8 8 10 13 20 20 13 7 5 3 5 6 10 13 15 17 17 12 13 15 12 12 14 15 14 14 16 18 18 18 19 20 24 27 28 32 34 38
9 12 3 4 2 2 5 7 8 7 7 7 12 11 11 11 12 16 19 22 22 23 15 8 7 5 10 11 14 17 16 15 14 15 15 15 11 8 7 7 7 8 9 11 13 16 19 22 25 29 33 36 38 43
8 8 4 5 2 4 5 5 3 3 3 3 4 6 6 6 7 3 2 5 15 24 20 18 14 16 16 17 16 14 12 11 10 9 7 6 4 2 1 1 3 6 9 11 15 18 22 26 30 34 38 41 44 47
5 5 4 5 4 4 5 4 2 2 2 2 3 4 4 5 7 3 3 7 20 30 28 21 17 17 19 13 6 3 3 4 5 7 7 7 6 5 3 3 5 8 11 14 18 23 27 32 35 39 44 48 52 54
Wind_Direction_850mb
9 11 18 46 63 67 73 92 92 91 114 149 166 182 191 182 107 58 64 64 76 102 150 173 209 188 193 194 149 161 115 174 127 188 166 194 169 206 192 220 196 199 198 211 208 208 248 158 127 180 179 120 159 164
7 10 9 19 40 96 87 93 131 155 163 181 197 207 215 242 235 272 6 29 32 58 92 273 224 220 224 214 217 186 202 154 178 174 207 108 170 144 156 239 162 233 214 200 203 215 17 181 57 155 161 157 163 162
5 8 7 9 21 33 98 133 144 201 214 210 211 213 216 223 237 235 252 287 324 3 326 249 252 241 236 236 229 211 224 220 201 212 155 184 202 139 168 213 202 284 226 206 126 182 174 214 180 164 169 163 160 164
4 7 8 6 16 29 39 39 52 43 246 238 216 219 220 217 236 236 246 257 275 281 139 238 266 248 253 247 241 232 225 216 209 192 157 157 186 189 211 204 199 187 163 164 274 153 83 217 190 166 156 154 158 160
6 5 9 8 20 27 30 32 46 35 32 253 227 213 214 223 232 236 243 258 256 225 235 241 240 259 271 268 255 230 227 223 182 148 161 220 168 123 320 11 243 185 169 179 218 166 122 162 188 181 170 171 173 171
7 7 12 23 32 26 26 22 20 350 33 47 158 221 225 232 231 223 229 235 228 218 235 238 245 255 279 255 217 204 204 195 176 144 178 205 171 165 182 198 206 185 185 180 138 156 196 176 178 180 175 176 175 175
6 13 22 37 40 24 18 18 19 30 73 72 91 128 191 200 209 194 194 204 207 211 226 350 320 297 334 330 353 53 158 127 124 137 181 153 154 153 122 217 134 166 175 157 163 151 132 163 172 175 182 175 173 171
3 14 20 31 39 29 15 10 16 36 111 79 38 68 79 72 142 223 203 145 165 187 177 138 280 351 6 356 338 12 25 56 42 99 85 69 111 67 230 136 165 167 156 161 164 178 176 173 169 171 176 175 172 170
357 8 14 18 30 36 24 10 2 360 72 127 67 25 345 7 86 135 141 128 138 190 152 102 152 227 353 359 320 341 13 78 30 61 48 5 69 218 221 179 187 180 170 179 162 143 150 168 166 172 177 176 182 177
353 354 1 3 8 22 25 24 2 338 321 280 295 292 290 337 145 155 188 226 225 48 50 87 125 295 354 4 8 327 34 65 104 357 324 17 258 138 325 241 196 189 185 170 151 149 163 170 177 180 183 185 182 179
347 349 347 350 348 354 10 16 21 328 293 277 282 281 175 171 173 239 267 35 357 32 32 83 71 14 12 51 283 23 197 317 97 262 130 309 284 40 325 163 170 183 176 170 169 144 187 198 194 189 185 181 182 181
340 340 340 337 341 335 339 357 4 351 305 280 264 218 199 205 187 93 287 332 59 225 180 143 180 219 28 359 130 351 122 23 198 319 69 306 255 253 167 156 160 169 169 176 196 167 177 180 177 178 179 180 184 190
334 336 333 322 331 330 320 319 330 333 307 255 241 216 206 275 28 144 228 286 273 183 181 167 173 155 193 76 63 60 78 202 318 42 230 233 215 204 172 165 168 177 185 192 195 185 170 171 176 179 184 188 196 205
327 328 328 322 327 321 320 306 305 324 293 241 206 271 154 289 246 186 183 189 145 157 155 150 125 153 59 62 321 84 263 44 48 360 238 242 209 180 177 177 182 188 196 199 198 191 184 183 185 187 194 206 221 229
327 322 323 322 326 324 315 309 283 288 259 251 179 235 212 256 216 195 189 183 167 156 149 118 81 53 357 77 41 102 30 292 206 226 225 195 176 179 181 185 189 195 200 204 205 200 195 192 195 205 215 226 236 243
342 329 332 329 326 321 318 309 280 232 240 230 201 103 140 50 280 207 198 194 165 158 152 119 116 60 335 127 86 214 127 222 237 213 185 177 179 182 187 191 195 198 200 199 200 201 201 202 206 216 226 236 244 249
342 336 335 333 328 320 312 297 241 219 222 207 242 212 187 181 175 166 175 169 169 164 188 117 109 204 103 47 269 198 205 220 203 173 172 182 193 194 194 198 203 205 206 205 203 205 208 216 224 232 239 244 245 250
321 327 330 335 339 330 306 238 239 239 218 197 170 187 193 177 156 161 175 171 165 200 164 192 131 124 190 183 253 233 224 186 168 176 183 191 195 201 204 208 209 210 212 213 214 218 225 232 240 244 241 244 247 250
298 312 322 331 334 330 277 250 240 251 197 173 176 167 177 168 180 175 174 172 173 170 158 143 102 200 225 215 232 228 189 181 185 190 198 202 202 202 203 203 204 208 211 215 219 226 232 237 238 236 240 247 251 261
292 300 313 319 328 294 269 271 257 268 170 167 156 160 147 143 154 169 170 173 165 180 155 197 217 217 206 222 220 193 201 195 197 193 209 213 217 220 224 228 229 224 220 220 222 228 238 244 246 245 248 249 254 267
286 294 299 310 318 230 261 254 257 90 152 176 152 150 125 142 147 167 182 184 204 219 239 230 230 232 228 215 201 202 199 200 210 221 236 232 231 230 232 231 227 228 230 233 238 242 245 249 243 243 247 252 258 266
268 278 289 303 247 244 257 236 146 146 153 136 156 164 139 156 177 187 171 199 235 234 218 225 240 237 233 225 218 214 215 220 224 230 238 246 246 239 241 240 238 240 243 248 247 247 246 235 234 241 248 256 267 276
268 263 261 228 235 236 237 190 198 161 117 207 145 58 224 192 190 169 240 232 250 237 230 234 236 236 228 225 229 232 234 238 243 244 243 247 250 249 242 238 237 239 240 239 239 238 234 231 235 242 253 265 276 279
251 223 218 224 208 207 174 167 160 131 125 160 176 227 235 169 160 215 258 250 239 236 226 221 216 212 215 223 231 234 237 241 243 244 245 248 251 248 243 237 235 235 230 226 230 231 230 231 236 246 261 274 283 283
206 215 205 221 197 135 151 67 334 120 245 201 200 209 189 155 184 232 236 262 237 224 210 202 203 210 216 220 227 228 228 235 242 241 245 249 248 244 243 239 237 233 231 232 235 236 232 233 242 254 266 278 286 284
216 197 186 197 168 177 180 162 197 199 167 179 206 139 163 166 214 243 230 312 283 219 199 191 188 194 211 209 203 215 232 249 257 258 258 259 256 251 249 245 242 239 241 239 234 234 235 239 249 262 271 281 282 281
226 207 183 178 153 145 113 92 132 134 180 200 176 166 176 215 239 251 325 165 120 145 154 163 167 155 151 183 255 267 271 271 269 266 265 262 257 251 245 241 238 232 238 235 234 239 245 251 260 268 276 278 280 282
213 171 172 170 169 191 150 173 183 213 213 160 136 185 199 214 245 356 39 147 148 143 146 153 159 195 281 300 298 292 283 278 271 265 260 258 255 247 242 234 230 230 233 235 238 242 249 258 265 272 275 277 277 281
134 149 140 114 139 198 221 203 210 184 165 175 189 235 249 247 238 152 115 170 172 170 172 184 286 310 315 309 303 300 299 292 276 267 260 247 242 228 219 214 213 218 228 243 253 259 265 266 267 269 275 282 284 286
144 162 139 163 186 209 180 193 192 198 204 211 243 280 279 267 258 235 221 215 208 210 218 249 293 294 330 18 41 53 66 82 93 109 137 149 148 162 179 191 207 231 248 254 258 260 263 267 271 278 281 285 289 291
157 177 144 175 215 188 199 208 224 233 237 238 241 252 264 290 278 268 255 241 226 214 216 223 198 172 131 113 101 90 85 91 99 106 123 143 156 169 191 219 236 244 250 255 263 271 278 283 287 291 294 296 299 301
162 181 164 203 195 185 174 185 187 196 231 230 244 252 266 271 267 238 250 225 207 203 196 184 172 162 148 128 110 96 89 93 101 112 125 127 128 122 114 273 269 273 282 289 292 295 297 299 300 301 303 304 305 305
128 154 167 145 141 178 195 182 90 322 258 280 272 292 281 274 255 233 230 175 164 162 169 173 172 172 178 178 163 142 111 100 107 111 113 108 100 92 66 16 345 336 326 318 312 309 307 305 307 308 308 309 308 308